#timestamp,LO_Frequency,Hit,StdDev 
1582027215.4,286047003.6,N
1582027235.2,286047003.8,N
1582027255.0,286047004.2,N
1582027255.9,286047004.2,N
1582027275.8,286047001.3,N
1582027295.6,286047000.9,N
1582027315.5,286047001.1,N
1582027335.3,286046999.9,N
1582027355.1,286047001.8,N
1582027375.9,286047004.1,N
1582027395.7,286047001.9,N
1582027415.5,286047002.0,N
1582027435.4,286047006.0,Y
1582027455.2,286047000.1,P
1582027475.1,286047000.6,N
1582027476.0,286047000.6,N
1582027495.8,286047000.2,N
1582027515.6,286047001.0,N
1582027535.5,286047000.7,N
1582027555.3,286047001.1,N
1582027575.2,286046998.7,N
1582027595.9,286047000.5,N
1582027615.7,286047000.8,N
1582027635.6,286047000.6,N
1582027655.4,286047000.4,N
1582027675.3,286046999.9,N
1582027695.1,286047000.3,N
1582027696.0,286047000.3,N
1582027715.8,286047002.1,N
1582027735.7,286047002.6,N
1582027755.5,286047001.5,N
1582027775.3,286047003.2,Y
1582027795.2,286047001.6,P
1582027815.0,286047002.6,P
1582027815.9,286047002.6,P
1582027835.8,286046999.9,N
1582027855.6,286047000.5,N
1582027875.4,286047000.6,N
1582027895.3,286046998.5,N
1582027915.1,286047000.3,N
1582027935.9,286047001.0,N
1582027955.7,286047000.7,N
1582027975.5,286047000.9,N
1582027995.4,286047000.2,N
1582028015.2,286047000.5,N
1582028035.0,286046998.5,N
1582028035.9,286046998.5,N
1582028055.8,286047001.1,N
1582028075.6,286046998.1,N
1582028095.5,286047000.6,N
1582028115.3,286046998.3,N
1582028135.1,286046999.1,N
1582028155.9,286046999.0,N
1582028175.7,286046999.0,N
1582028195.6,286046999.0,N
1582028215.4,286046998.6,N
1582028235.2,286047001.1,N
1582028255.1,286047000.6,N
1582028256.0,286047000.6,N
1582028275.8,286047000.9,N
1582028295.6,286047000.7,N
1582028315.5,286046998.1,N
1582028335.3,286046996.5,N
1582028355.2,286046997.8,N
1582028375.0,286046998.0,N
1582028375.9,286046998.0,N
1582028395.7,286046995.7,Y
1582028415.6,286046995.5,P
1582028435.4,286046998.0,N
1582028455.3,286046996.8,N
1582028475.1,286046997.7,N
1582028495.8,286046997.0,N
1582028515.7,286046997.5,N
1582028535.5,286046997.6,N
1582028555.4,286046996.9,N
1582028575.2,286046996.6,Y
1582028595.0,286047002.3,P
1582028595.9,286047002.3,N
1582028615.8,286047001.9,N
1582028635.6,286047001.8,N
1582028655.5,286047004.3,N
1582028675.3,286047004.2,N
1582028695.1,286047001.5,N
1582028715.9,286047002.2,N
1582028735.7,286047011.9,Y
1582028755.5,286046999.0,P
1582028775.4,286046997.1,N
1582028795.2,286046996.6,N
1582028815.1,286046999.5,N
1582028816.0,286046999.5,N
1582028835.8,286046996.9,N
1582028855.6,286046999.1,N
1582028875.5,286046996.7,N
1582028895.3,286046997.1,N
1582028915.1,286046997.2,N
1582028935.9,286046997.0,N
1582028955.7,286046996.5,N
1582028975.6,286046996.9,N
1582028995.4,286046996.9,N
1582029015.2,286046998.9,N
1582029035.1,286046999.5,N
1582029036.0,286046999.5,N
1582029055.8,286046996.5,N
1582029075.7,286046999.1,N
1582029095.5,286046999.4,N
1582029115.3,286046998.3,N
1582029135.2,286047001.2,N
1582029155.0,286047004.3,N
1582029155.9,286047004.3,N
1582029175.7,286047003.8,N
1582029195.6,286047001.4,N
1582029215.4,286047001.6,N
1582029235.3,286047001.4,N
1582029255.1,286047002.4,N
1582029275.8,286047001.5,N
1582029295.7,286046999.7,N
1582029315.5,286047001.6,N
1582029335.4,286047002.7,N
1582029355.2,286047004.1,N
1582029375.0,286047003.8,N
1582029375.9,286047003.8,N
1582029395.8,286047003.9,N
1582029415.6,286047003.5,N
1582029435.4,286047004.4,N
1582029455.3,286047002.4,N
1582029475.1,286047000.2,N
1582029495.9,286046998.1,N
1582029515.7,286046998.2,N
1582029535.5,286046998.2,N
1582029555.4,286046998.2,N
1582029575.2,286047000.7,N
1582029595.0,286046998.5,N
1582029596.0,286046998.5,N
1582029615.8,286047001.2,N
1582029635.6,286046999.1,N
1582029655.5,286047000.6,N
1582029675.3,286046998.6,N
1582029695.1,286046998.2,N
1582029715.9,286046998.1,N
1582029735.7,286046999.0,N
1582029755.6,286046999.2,N
1582029775.4,286046996.6,N
1582029795.2,286046999.5,N
1582029815.1,286046996.6,N
1582029816.0,286046996.6,N
1582029835.8,286046996.5,N
1582029855.7,286046996.5,N
1582029875.5,286046999.6,N
1582029895.3,286046998.7,N
1582029915.2,286046998.8,N
1582029935.0,286046998.8,N
1582029935.9,286046998.8,N
1582029955.7,286046998.3,N
1582029975.6,286046999.4,N
1582029995.4,286047001.0,N
1582030015.3,286047001.6,N
1582030035.1,286047000.4,N
1582030036.0,286047000.4,N
1582030055.8,286046998.1,N
1582030075.7,286047001.1,N
1582030095.5,286046999.1,N
1582030115.4,286046999.2,N
1582030135.2,286046999.6,N
1582030155.0,286046997.0,N
1582030155.9,286046997.0,N
1582030175.8,286046997.5,N
1582030195.6,286046996.5,N
1582030215.4,286046998.1,N
1582030235.3,286047000.3,N
1582030255.1,286047001.2,N
1582030275.9,286046999.0,N
1582030295.7,286046998.8,N
1582030315.5,286046999.9,N
1582030335.4,286046998.1,N
1582030355.2,286047001.1,N
1582030375.0,286046998.5,N
1582030376.0,286046998.5,N
1582030395.8,286046999.1,N
1582030415.6,286046999.2,N
1582030435.5,286046997.1,N
1582030455.3,286046997.1,N
1582030475.1,286046997.1,N
1582030495.9,286046999.6,N
1582030515.7,286046997.0,N
1582030535.6,286046997.0,N
1582030555.4,286046998.3,N
1582030575.2,286047000.6,N
1582030595.1,286046998.5,N
1582030596.0,286046998.5,N
1582030615.8,286047001.0,N
1582030635.7,286047001.2,N
1582030655.5,286047001.2,N
1582030675.3,286047001.2,N
1582030695.2,286047000.1,N
1582030715.9,286046999.7,N
1582030735.7,286047000.8,N
1582030755.6,286046998.4,N
1582030775.4,286047000.1,N
1582030795.3,286047002.2,N
